User: anonymous   Login
Location: Poughquag
(41.6090°N, 73.6820°W)
Time: 14:22:05
(UTC-04:00)
Language:

CAS-4A - Orbit

View from above orbital plane
View from above orbital plane
View from above satellite
View from above satellite

Ground track
Ground track

The orbit data is extracted from the following two-line orbital elements,

1 42761U 17034D   24149.96072211  .00014486  00000-0  53183-3 0  9999
2 42761  43.0241 333.5319 0012103 235.9163 124.0540 15.27710405384473
Epoch (UTC): 28 May 2024 23:03:26
Eccentricity: 0.0012103
inclination: 43.0241°
perigee height: 474 km
apogee height: 491 km
right ascension of ascending node: 333.5319°
argument of perigee: 235.9163°
revolutions per day: 15.27710405
mean anomaly at epoch: 124.0540°
orbit number at epoch: 38447

The dashed part of the orbit path shows where the satellite is in the earth's shadow,  

DLR